Weather in Khomutovo

Russia / Oryol Oblast     52°51′15″N   37°26′32″E
temp.,
°C
wind,
m/s
gust,
m/s
humid.,
%
clouds,
%
prec.,
mm/h
press.,
hPa
HPBL,
m
1 august, sun
sun100:00+20nnw117095 0.0 101111
03:00+19s0072100 0.0 101211
06:00+19sse227480 0.0 101226
09:00+25s3452100 0.0 1012446
12:00+30ssw453611 0.0 10122235
15:00+31sw573187 0.0 10112741
18:00+30w563779 0.0 10101111
21:00+24sse1148100 0.0 101111
2 august, mon
mon200:00+24sse34486 0.0 101160
03:00+21ssw335810 0.0 101040
06:00+21s376319 0.0 1010153
09:00+27s4745100 0.0 1010482
12:00+32ssw793054 0.0 10093020
15:00+31ssw6933100 0.0 1007886
18:00+31ssw363794 0.0 1005385
21:00+23sw4867100 1.0 1006145
3 august, tue
tue300:00+18ssw4893100 4.3 1008243
03:00+19sw71485100 4.3 1007574
06:00+18sw499421 0.0 1008482
09:00+19wsw5784100 0.0 1009741
12:00+22w776258 0.0 10101260
15:00+23wnw6755100 0.1 10101441
18:00+23wnw685184 0.0 10111508
21:00+17wnw38780 0.0 1013191
4 august, wed
wed400:00+15nw23865 0.0 101539
03:00+14wnw34855 0.0 101558
06:00+14wnw35800 0.0 1016112
09:00+21wnw45485 0.0 1017590
12:00+23wnw553988 0.0 10171774
15:00+24w573768 0.0 10172167
18:00+22nw4645100 0.0 1018717
21:00+17wnw225995 0.0 101922
5 august, thu
thu500:00+16wnw22631 0.0 101924
03:00+14w226746 0.0 101916
06:00+15wnw11675 0.0 101911
09:00+21wsw2247100 0.0 1019485
12:00+25ssw333458 0.0 10181835
15:00+26sw3331100 0.0 10171948
18:00+25sw2338100 0.0 10161071
21:00+22se2241100 0.0 101522